Weather Roundup
Issued by NWS

Home | Current Version | Previous Version | Text Only | Print | Product List | Glossary On
Versions: 1 2 3 4 5 6 7 8 9 10 11 12 13 14 15 16 17 18 19 20 21 22 23 24 25 26 27 28 29 30 31 32 33 34 35 36 37 38 39 40 41 42 43 44 45 46 47 48 49 50
000
NZUS93 KARX 161859
HRRWXR

CURRENT HOURLY OBSERVATIONS ACROSS
MUCH OF THE UPPER MISSISSIPPI VALLEY
NATIONAL WEATHER SERVICE LA CROSSE WI
100 PM CST MON JAN 16 2017


...SOUTHEAST MINNESOTA...


CITY           SKY/WX    TMP DP  RH WIND       PRES   REMARKS
ROCHESTER      CLOUDY    29  26  89 NE12      30.04F WCI  19
ROCHESTER/MAYO CLOUDY    32  28  85 CALM      30.05F
WINONA         CLOUDY    30  23  74 CALM      30.11F
AUSTIN         DRIZZLE   32  28  86 E9        30.02F WCI  24
ALBERT LEA     CLOUDY    34  30  86 E8        30.01F FOG     WCI  27
DODGE CENTER   CLOUDY    28  27  93 CALM      30.03F
PRESTON        MIX PCPN  29  27  93 NE7       30.04F WCI  22
OWATONNA       CLOUDY    30  27  86 E6        30.04F WCI  24
FARIBAULT        N/A     30  23  74 N6        30.06F WCI  24
$$

...ELSEWHERE IN MINNESOTA...


CITY           SKY/WX    TMP DP  RH WIND       PRES   REMARKS
MINNEAPOLIS    CLOUDY    28  18  66 NE6       30.10F WCI  22
INTNL FALLS    SUNNY     27  14  58 CALM      30.04F
DULUTH         CLOUDY    31  22  69 SW3       30.06F
RED WING       CLOUDY    27  18  69 SE3       30.10F
REDWOOD FALLS  CLOUDY    29  23  78 SE3       30.05F
MANKATO        CLOUDY    31  26  82 NE7       30.05F WCI  24
WORTHINGTON    CLOUDY    29  27  92 NE12      30.00F FOG     WCI  19
FAIRMONT       CLOUDY    30  28  92 NE8       30.02F FOG     WCI  22
$$

...SOUTHWEST WISCONSIN...


CITY           SKY/WX    TMP DP  RH WIND       PRES   REMARKS
LA CROSSE      CLOUDY    32  23  69 NW6       30.10F WCI  26
PRAIRIE DU CHI MIX PCPN  33  32  96 E5        30.07F WCI  28
BOSCOBEL       MIX PCPN  32  30  92 NE7       30.08F FOG     WCI  26
LONE ROCK      FRZ RAIN  32  29  88 NE7       30.11F FOG     WCI  26
PLATTEVILLE    CLOUDY    32  32 100 E10       30.07F WCI  24
FORT MC COY    CLOUDY    31  25  78 E7        30.12F WCI  24
MAUSTON-NEW LI CLOUDY    31  26  80 E5        30.12F WCI  27
VIROQUA        CLOUDY    32  31  97 E10       30.06F WCI  23
WIS DELLS      DRIZZLE   31  28  89 E7        30.12F WCI  24
$$

...ELSEWHERE IN WISCONSIN...


CITY           SKY/WX    TMP DP  RH WIND       PRES   REMARKS
MILWAUKEE      LGT RAIN  35  32  88 E8        30.16F FOG     WCI  29
MADISON        FRZ RAIN  32  30  92 E8        30.10F FOG     WCI  25
GREEN BAY      CLOUDY    32  22  66 N5        30.18F WCI  27
EAU CLAIRE     CLOUDY    26  16  65 NE6       30.12F WCI  19
BLACK RVR FLS  MIX PCPN  28  19  67 NE5       30.12F WCI  23
MEDFORD        CLOUDY    25  15  64 CALM      30.13F
WAUSAU         CLOUDY    25  14  63 CALM      30.13F HAZE
WIS RAPIDS     CLOUDY    31  18  58 E5        30.14F WCI  26
MARSHFIELD     CLOUDY    23  14  68 E8        30.11F WCI  14
RICE LAKE      CLOUDY    18  13  80 CALM      30.15F
$$

...NORTHEAST IOWA...


CITY           SKY/WX    TMP DP  RH WIND       PRES   REMARKS
WATERLOO       RAIN      33  31  92 E9        29.99F FOG     WCI  25
DUBUQUE        MIX PCPN  32  31  96 E9        30.05F FOG     WCI  24
DECORAH        MIX PCPN  32  32 100 E9        30.02F WCI  24
MASON CITY     MIX PCPN  32  30  92 E10       30.01F FOG     WCI  24
CHARLES CITY   LGT RAIN  32  32 100 MISG      30.02F
OELWEIN        LGT RAIN  32  32 100 E12       30.01F WCI  23
$$

...ELSEWHERE IN IOWA...


CITY           SKY/WX    TMP DP  RH WIND       PRES   REMARKS
DES MOINES     LGT RAIN  34  32  92 SE8       29.93F FOG     WCI  27
IOWA CITY      LGT RAIN  34  32  92 E8        30.01F FOG     WCI  27
FORT DODGE     CLOUDY    32  30  93 CALM      29.97F
MARSHALLTOWN   LGT RAIN  33  32  96 E12       29.94F FOG     WCI  24
CEDAR RAPIDS   LGT RAIN  32  32 100 E13       29.98F WCI  22
$$

...NORTHERN ILLINOIS...


CITY           SKY/WX    TMP DP  RH WIND       PRES   REMARKS
CHICAGO-OHARE  LGT RAIN  35  34  96 E8        30.12F FOG     WCI  29
CHICAGO-MIDWAY LGT RAIN  36  34  92 E7        30.13F FOG     WCI  30
MOLINE         LGT RAIN  36  34  92 E10       30.03F FOG     WCI  28
ROCKFORD       LGT RAIN  35  32  88 E7        30.10F FOG     WCI  29
PEORIA         FOG       37  37 100 E7        30.05F VSB 1/8 WCI  32
$$

NOTE: "FAIR" INDICATES FEW OR NO CLOUDS BELOW 12,000 FEET WITH NO
SIGNIFICANT WEATHER AND/OR OBSTRUCTIONS TO VISIBILITY. WIND
SPEEDS ARE IN MILES-PER-HOUR.




USA.gov is the U.S. government's official web portal to all federal, state and local government web resources and services.